Hourly Weather Rublino

Today, 23 April, Friday

Time Temperature Precipitation Wind Pressure Humidity
00:00 +7°C° 0 mm 4 mps 742 mmHg 84%
01:00 +7°C° 0 mm 4 mps 742 mmHg 84%
02:00 +6°C° 0 mm 4 mps 742 mmHg 85%
03:00 +6°C° 0 mm 4 mps 742 mmHg 86%
04:00 +6°C° 0 mm 4 mps 742 mmHg 85%
05:00 +6°C° 0 mm 4 mps 742 mmHg 85%
06:00 +6°C° 0 mm 4 mps 742 mmHg 84%
07:00 +7°C° 0 mm 5 mps 742 mmHg 77%
08:00 +9°C° 0 mm 6 mps 742 mmHg 71%
09:00 +11°C° 0 mm 6 mps 742 mmHg 64%
10:00 +12°C° 0 mm 7 mps 741 mmHg 58%
11:00 +14°C° 0 mm 7 mps 741 mmHg 52%
12:00 +15°C° 0 mm 8 mps 741 mmHg 46%
13:00 +15°C° 0.1 mm 8 mps 740 mmHg 49%
14:00 +15°C° 0.1 mm 7 mps 740 mmHg 51%
15:00 +14°C° 0.1 mm 7 mps 740 mmHg 54%
16:00 +13°C° 0.2 mm 6 mps 740 mmHg 62%
17:00 +11°C° 0.2 mm 4 mps 739 mmHg 70%
18:00 +10°C° 0.2 mm 3 mps 739 mmHg 79%
19:00 +9°C° 0.4 mm 3 mps 739 mmHg 83%
20:00 +8°C° 0.4 mm 3 mps 739 mmHg 86%
21:00 +8°C° 0.4 mm 3 mps 739 mmHg 90%
22:00 +7°C° 0.4 mm 2 mps 738 mmHg 91%
23:00 +7°C° 0.4 mm 2 mps 738 mmHg 92%

Tomorrow, 24 April, Saturday

Time Temperature Precipitation Wind Pressure Humidity
00:00 +7°C° 0.4 mm 2 mps 737 mmHg 93%
01:00 +5°C° 1.9 mm 3 mps 737 mmHg 94%
02:00 +4°C° 1.9 mm 4 mps 737 mmHg 94%
03:00 +2°C° 1.9 mm 5 mps 736 mmHg 95%
04:00 +3°C° 0.5 mm 4 mps 736 mmHg 94%
05:00 +3°C° 0.5 mm 4 mps 736 mmHg 94%
06:00 +3°C° 0.5 mm 4 mps 736 mmHg 93%
07:00 +3°C° 0.1 mm 4 mps 736 mmHg 87%
08:00 +4°C° 0.1 mm 4 mps 736 mmHg 81%
09:00 +5°C° 0.1 mm 4 mps 736 mmHg 76%
10:00 +5°C° 0.2 mm 4 mps 736 mmHg 70%
11:00 +6°C° 0.2 mm 4 mps 736 mmHg 64%
12:00 +7°C° 0.2 mm 4 mps 736 mmHg 58%
13:00 +7°C° 0.3 mm 4 mps 735 mmHg 56%
14:00 +7°C° 0.3 mm 5 mps 735 mmHg 54%
15:00 +7°C° 0.3 mm 5 mps 735 mmHg 52%
16:00 +7°C° 0.4 mm 5 mps 735 mmHg 59%
17:00 +5°C° 0.4 mm 6 mps 735 mmHg 67%
18:00 +4°C° 0.4 mm 6 mps 735 mmHg 75%
19:00 +3°C° 0.1 mm 6 mps 736 mmHg 77%
20:00 +3°C° 0.1 mm 5 mps 736 mmHg 80%
21:00 +2°C° 0.1 mm 5 mps 736 mmHg 82%
22:00 +1°C° 0.2 mm 5 mps 736 mmHg 85%
23:00 +1°C° 0.2 mm 6 mps 736 mmHg 88%

Day after tomorrow, 25 April, Sunday

Time Temperature Precipitation Wind Pressure Humidity
00:00 +1°C° 0.2 mm 6 mps 737 mmHg 91%
01:00 -1°C° 0.1 mm 6 mps 737 mmHg 88%
02:00 -1°C° 0.1 mm 6 mps 738 mmHg 84%
03:00 -1°C° 0.1 mm 6 mps 738 mmHg 81%
04:00 -2°C° 0 mm 6 mps 738 mmHg 83%
05:00 -2°C° 0 mm 6 mps 739 mmHg 85%
06:00 -2°C° 0 mm 5 mps 739 mmHg 87%
07:00 -2°C° 0 mm 6 mps 739 mmHg 81%
08:00 +1°C° 0 mm 6 mps 739 mmHg 75%
09:00 +2°C° 0 mm 7 mps 739 mmHg 68%
10:00 +3°C° 0 mm 7 mps 739 mmHg 61%
11:00 +4°C° 0 mm 8 mps 739 mmHg 54%
12:00 +5°C° 0 mm 8 mps 739 mmHg 47%
13:00 +5°C° 0 mm 8 mps 739 mmHg 47%
14:00 +5°C° 0 mm 8 mps 739 mmHg 47%
15:00 +6°C° 0 mm 8 mps 739 mmHg 47%
16:00 +5°C° 0.3 mm 7 mps 739 mmHg 52%
17:00 +5°C° 0.3 mm 6 mps 739 mmHg 58%
18:00 +5°C° 0.3 mm 5 mps 739 mmHg 63%
19:00 +5°C° 0.2 mm 4 mps 738 mmHg 71%
20:00 +4°C° 0.2 mm 4 mps 738 mmHg 79%
21:00 +3°C° 0.2 mm 3 mps 738 mmHg 88%
22:00 +2°C° 0.7 mm 3 mps 739 mmHg 89%
23:00 +1°C° 0.7 mm 3 mps 739 mmHg 90%

26 April, Monday

Time Temperature Precipitation Wind Pressure Humidity
00:00 +1°C° 0.7 mm 3 mps 739 mmHg 91%
01:00 0°C° 0 mm 3 mps 739 mmHg 91%
02:00 0°C° 0 mm 3 mps 739 mmHg 91%
03:00 -1°C° 0 mm 3 mps 740 mmHg 91%
04:00 -1°C° 0 mm 3 mps 740 mmHg 90%
05:00 -1°C° 0 mm 3 mps 740 mmHg 88%
06:00 -1°C° 0 mm 3 mps 740 mmHg 87%
07:00 0°C° 0 mm 3 mps 740 mmHg 80%
08:00 +2°C° 0 mm 3 mps 740 mmHg 73%
09:00 +3°C° 0 mm 3 mps 740 mmHg 66%
10:00 +4°C° 0.1 mm 3 mps 740 mmHg 61%
11:00 +5°C° 0.1 mm 3 mps 739 mmHg 56%
12:00 +7°C° 0.1 mm 3 mps 739 mmHg 51%
13:00 +7°C° 0.3 mm 3 mps 739 mmHg 49%
14:00 +7°C° 0.3 mm 3 mps 738 mmHg 48%
15:00 +8°C° 0.3 mm 3 mps 738 mmHg 47%
16:00 +7°C° 0.3 mm 2 mps 738 mmHg 49%
17:00 +7°C° 0.3 mm 2 mps 738 mmHg 50%
18:00 +7°C° 0.3 mm 2 mps 737 mmHg 52%
19:00 +6°C° 0.1 mm 2 mps 737 mmHg 58%
20:00 +5°C° 0.1 mm 2 mps 737 mmHg 64%
21:00 +4°C° 0.1 mm 2 mps 737 mmHg 70%
22:00 +3°C° 0.1 mm 2 mps 737 mmHg 74%
23:00 +3°C° 0.1 mm 2 mps 737 mmHg 78%

27 April, Tuesday

Time Temperature Precipitation Wind Pressure Humidity
00:00 +2°C° 0.1 mm 3 mps 737 mmHg 81%
01:00 +1°C° 0 mm 3 mps 737 mmHg 83%
02:00 +1°C° 0 mm 3 mps 736 mmHg 85%
03:00 +1°C° 0 mm 3 mps 736 mmHg 87%
04:00 +1°C° 0.3 mm 3 mps 736 mmHg 90%
05:00 0°C° 0.3 mm 3 mps 736 mmHg 92%
06:00 0°C° 0.3 mm 3 mps 737 mmHg 95%
07:00 0°C° 0.3 mm 4 mps 737 mmHg 88%
08:00 +1°C° 0.3 mm 4 mps 737 mmHg 82%
09:00 +1°C° 0.3 mm 5 mps 737 mmHg 75%
10:00 +2°C° 0.2 mm 5 mps 737 mmHg 69%
11:00 +5°C° 0.2 mm 5 mps 737 mmHg 62%
12:00 +5°C° 0.2 mm 6 mps 737 mmHg 55%
13:00 +5°C° 0.4 mm 6 mps 737 mmHg 53%
14:00 +5°C° 0.4 mm 6 mps 737 mmHg 51%
15:00 +7°C° 0.4 mm 6 mps 737 mmHg 49%
16:00 +5°C° 0.4 mm 6 mps 738 mmHg 54%
17:00 +6°C° 0.4 mm 5 mps 738 mmHg 58%
18:00 +5°C° 0.4 mm 5 mps 738 mmHg 62%
19:00 +4°C° 0.1 mm 4 mps 738 mmHg 68%
20:00 +3°C° 0.1 mm 4 mps 739 mmHg 74%
21:00 +2°C° 0.1 mm 3 mps 739 mmHg 80%
22:00 +1°C° 0 mm 3 mps 740 mmHg 82%
23:00 +1°C° 0 mm 3 mps 740 mmHg 85%

28 April, Wednesday

Time Temperature Precipitation Wind Pressure Humidity
00:00 0°C° 0 mm 3 mps 740 mmHg 87%
01:00 0°C° 0 mm 3 mps 741 mmHg 87%
02:00 0°C° 0 mm 3 mps 741 mmHg 88%
03:00 -1°C° 0 mm 3 mps 741 mmHg 88%
04:00 -1°C° 0 mm 3 mps 742 mmHg 87%
05:00 0°C° 0 mm 3 mps 742 mmHg 86%
06:00 0°C° 0 mm 3 mps 742 mmHg 85%
07:00 +1°C° 0 mm 3 mps 742 mmHg 78%
08:00 +3°C° 0 mm 3 mps 743 mmHg 70%
09:00 +5°C° 0 mm 4 mps 743 mmHg 63%
10:00 +6°C° 0 mm 4 mps 743 mmHg 58%
11:00 +7°C° 0 mm 4 mps 743 mmHg 53%
12:00 +7°C° 0 mm 4 mps 743 mmHg 49%
13:00 +8°C° 0 mm 4 mps 743 mmHg 48%
14:00 +8°C° 0 mm 4 mps 743 mmHg 47%
15:00 +10°C° 0 mm 3 mps 742 mmHg 45%
16:00 +10°C° 0 mm 3 mps 742 mmHg 49%
17:00 +10°C° 0 mm 3 mps 742 mmHg 53%
18:00 +10°C° 0 mm 3 mps 742 mmHg 56%
19:00 +9°C° 0 mm 3 mps 742 mmHg 61%
20:00 +8°C° 0 mm 3 mps 742 mmHg 65%
21:00 +7°C° 0 mm 3 mps 742 mmHg 70%
22:00 +7°C° 0 mm 3 mps 742 mmHg 71%
23:00 +6°C° 0 mm 4 mps 741 mmHg 72%
Show more